User: anonymous   Login
Location: Kutna Hora
(49.9500°N, 15.2670°E)
Time: 14:57:22
(UTC+02:00)
Language:

ISS - Orbit

View from above orbital plane
View from above orbital plane
View from above satellite
View from above satellite

Ground track
Ground track

The orbit data is extracted from the following two-line orbital elements,

1 25544U 98067A   19296.54792400  .00016717  00000-0  10270-3 0  9027
2 25544  51.6398  84.7958 0006924 180.4172 179.6974 15.50182387 35167
Epoch (UTC): 23 October 2019 13:09:00
Eccentricity: 0.0006924
inclination: 51.6398°
perigee height: 411 km
apogee height: 421 km
right ascension of ascending node: 84.7958°
argument of perigee: 180.4172°
revolutions per day: 15.50182387
mean anomaly at epoch: 179.6974°
orbit number at epoch: 3516

The dashed part of the orbit path shows where the satellite is in the earth's shadow,  

DLR